TimeEDT,TemperatureF,Dew PointF,Humidity,Sea Level PressureIn,VisibilityMPH,Wind Direction,Wind SpeedMPH,Gust SpeedMPH,PrecipitationIn,Events,Conditions,WindDirDegrees,DateUTC
12:15 AM,35.6,28.0,74,29.70,10.0,Calm,Calm,-,N/A,,Overcast,0,2014-03-12 04:15:00
12:35 AM,38.3,29.3,70,29.71,10.0,Calm,Calm,-,N/A,,Overcast,0,2014-03-12 04:35:00
12:55 AM,35.6,28.9,77,29.70,10.0,Calm,Calm,-,N/A,,Overcast,0,2014-03-12 04:55:00
1:15 AM,35.8,28.4,75,29.70,10.0,Calm,Calm,-,N/A,,Overcast,0,2014-03-12 05:15:00
1:35 AM,35.6,29.1,77,29.69,10.0,Calm,Calm,-,N/A,,Overcast,0,2014-03-12 05:35:00
1:55 AM,35.6,29.1,77,29.70,10.0,Calm,Calm,-,N/A,,Overcast,0,2014-03-12 05:55:00
2:15 AM,35.8,28.2,74,29.71,10.0,Calm,Calm,-,N/A,,Overcast,0,2014-03-12 06:15:00
2:35 AM,38.3,29.1,70,29.71,10.0,West,3.5,-,N/A,,Overcast,270,2014-03-12 06:35:00
2:55 AM,38.3,28.4,68,29.71,10.0,Calm,Calm,-,N/A,,Overcast,0,2014-03-12 06:55:00
3:15 AM,38.3,28.9,69,29.70,10.0,Calm,Calm,-,N/A,,Overcast,0,2014-03-12 07:15:00
3:35 AM,37.8,28.8,70,29.70,10.0,Calm,Calm,-,N/A,,Overcast,0,2014-03-12 07:35:00
3:55 AM,35.6,27.7,73,29.70,10.0,Calm,Calm,-,N/A,,Overcast,0,2014-03-12 07:55:00
4:15 AM,35.6,27.5,72,29.70,10.0,Calm,Calm,-,N/A,,Overcast,0,2014-03-12 08:15:00
4:35 AM,35.6,27.5,72,29.70,10.0,Calm,Calm,-,N/A,,Overcast,0,2014-03-12 08:35:00
4:55 AM,35.6,27.1,71,29.71,10.0,Calm,Calm,-,N/A,,Overcast,0,2014-03-12 08:55:00
5:15 AM,35.6,27.3,72,29.72,10.0,Calm,Calm,-,N/A,,Overcast,0,2014-03-12 09:15:00
5:35 AM,35.6,28.4,75,29.73,10.0,Calm,Calm,-,N/A,,Overcast,0,2014-03-12 09:35:00
5:55 AM,35.6,28.9,77,29.73,10.0,Calm,Calm,-,N/A,,Overcast,0,2014-03-12 09:55:00
6:15 AM,35.6,28.4,75,29.74,10.0,North,5.8,-,N/A,,Overcast,360,2014-03-12 10:15:00
6:35 AM,35.6,26.4,69,29.74,10.0,North,6.9,-,N/A,,Overcast,360,2014-03-12 10:35:00
6:55 AM,35.6,25.3,66,29.74,10.0,North,9.2,-,N/A,,Overcast,350,2014-03-12 10:55:00
7:15 AM,35.6,23.0,60,29.74,10.0,North,8.1,-,N/A,,Overcast,360,2014-03-12 11:15:00
7:35 AM,35.6,23.5,62,29.74,10.0,North,8.1,16.1,N/A,,Overcast,360,2014-03-12 11:35:00
7:55 AM,33.3,21.6,62,29.73,10.0,North,8.1,18.4,N/A,,Overcast,10,2014-03-12 11:55:00
8:15 AM,33.1,21.4,62,29.74,10.0,North,10.4,-,N/A,,Overcast,10,2014-03-12 12:15:00
8:35 AM,33.1,21.9,64,29.75,10.0,NNE,9.2,-,N/A,,Overcast,20,2014-03-12 12:35:00
8:55 AM,32.9,21.7,64,29.74,10.0,North,12.7,-,N/A,,Overcast,360,2014-03-12 12:55:00
9:15 AM,32.0,21.2,64,29.74,10.0,North,13.8,17.3,N/A,,Overcast,10,2014-03-12 13:15:00
9:35 AM,32.0,21.7,66,29.74,10.0,North,12.7,-,N/A,Snow,Light Snow,10,2014-03-12 13:35:00
9:55 AM,31.1,19.4,62,29.75,10.0,North,16.1,23.0,N/A,,Overcast,360,2014-03-12 13:55:00
10:15 AM,30.9,19.8,63,29.75,10.0,North,15.0,19.6,N/A,,Overcast,10,2014-03-12 14:15:00
10:35 AM,30.9,22.1,70,29.74,2.0,North,12.7,18.4,N/A,Snow,Light Snow,10,2014-03-12 14:35:00
10:55 AM,30.9,23.9,75,29.74,1.0,North,16.1,-,N/A,Snow,Light Snow,10,2014-03-12 14:55:00
11:15 AM,28.4,22.1,77,29.74,1.0,North,18.4,24.2,N/A,Snow,Light Snow,10,2014-03-12 15:15:00
11:35 AM,27.0,19.9,75,29.74,1.2,North,18.4,25.3,N/A,Snow,Light Snow,10,2014-03-12 15:35:00
11:55 AM,24.4,16.9,73,29.74,1.0,North,15.0,26.5,N/A,Snow,Light Snow,360,2014-03-12 15:55:00
12:15 PM,24.3,18.0,77,29.74,1.0,North,15.0,20.7,N/A,Snow,Light Snow,360,2014-03-12 16:15:00
12:35 PM,23.9,18.3,79,29.73,0.5,North,18.4,24.2,N/A,Snow,Light Snow,10,2014-03-12 16:35:00
12:55 PM,23.5,18.0,79,29.71,0.8,North,19.6,24.2,N/A,Snow,Light Snow,10,2014-03-12 16:55:00
1:15 PM,22.5,16.5,78,29.70,0.8,NNE,17.3,27.6,N/A,Snow,Light Snow,20,2014-03-12 17:15:00
1:35 PM,22.1,16.3,79,29.70,0.8,North,16.1,25.3,N/A,Snow,Light Snow,10,2014-03-12 17:35:00
2:15 PM,22.1,16.9,80,29.64,0.5,North,16.1,26.5,N/A,Snow,Snow,10,2014-03-12 18:15:00
2:35 PM,22.1,17.2,82,29.62,0.5,North,15.0,21.9,N/A,Snow,Snow,10,2014-03-12 18:35:00
2:55 PM,21.2,16.3,82,29.61,0.5,North,15.0,23.0,N/A,Snow,Light Snow,360,2014-03-12 18:55:00
3:15 PM,21.0,16.2,81,29.58,0.5,North,12.7,20.7,N/A,Snow,Light Snow,10,2014-03-12 19:15:00
3:35 PM,20.8,15.8,81,29.56,0.5,North,18.4,24.2,N/A,Snow,Light Snow,10,2014-03-12 19:35:00
3:55 PM,20.8,15.8,81,29.55,1.0,North,17.3,23.0,N/A,Snow,Light Snow,10,2014-03-12 19:55:00
4:15 PM,20.8,15.8,81,29.54,0.8,North,16.1,24.2,N/A,Snow,Light Snow,10,2014-03-12 20:15:00
4:35 PM,20.8,15.8,81,29.53,0.8,North,13.8,20.7,N/A,Snow,Light Snow,360,2014-03-12 20:35:00
4:55 PM,20.8,15.8,81,29.51,0.5,North,17.3,28.8,N/A,Snow,Snow,10,2014-03-12 20:55:00
5:15 PM,20.8,15.8,81,29.51,0.5,North,17.3,24.2,N/A,Snow,Snow,10,2014-03-12 21:15:00
5:35 PM,20.8,15.8,81,29.50,0.8,North,18.4,23.0,N/A,Snow,Light Snow,360,2014-03-12 21:35:00
5:55 PM,20.1,15.3,81,29.48,0.5,NNE,13.8,21.9,N/A,Snow,Snow,20,2014-03-12 21:55:00
6:15 PM,19.4,14.9,83,29.49,0.5,North,13.8,24.2,N/A,Snow,Snow,10,2014-03-12 22:15:00
6:35 PM,19.2,14.7,83,29.49,0.5,North,13.8,21.9,N/A,Snow,Light Snow,360,2014-03-12 22:35:00
6:55 PM,19.0,14.7,83,29.48,0.5,North,15.0,24.2,N/A,Snow,Snow,360,2014-03-12 22:55:00
7:15 PM,19.0,14.7,83,29.47,0.8,North,15.0,21.9,N/A,Snow,Light Snow,10,2014-03-12 23:15:00
7:35 PM,18.5,14.4,84,29.47,1.0,North,17.3,26.5,N/A,Snow,Light Snow,360,2014-03-12 23:35:00
7:55 PM,18.5,14.0,83,29.45,1.0,North,16.1,26.5,N/A,Snow,Light Snow,360,2014-03-12 23:55:00
8:15 PM,18.5,14.0,83,29.46,1.0,North,17.3,20.7,N/A,Snow,Light Snow,360,2014-03-13 00:15:00
8:35 PM,19.0,14.5,83,29.45,-9999.0,North,15.0,24.2,N/A,,Overcast,350,2014-03-13 00:35:00
8:55 PM,19.4,14.9,83,29.46,-9999.0,North,18.4,25.3,N/A,,Overcast,360,2014-03-13 00:55:00
9:15 PM,19.2,14.7,83,29.45,-9999.0,North,20.7,25.3,N/A,,Overcast,10,2014-03-13 01:15:00
9:35 PM,18.5,14.0,83,29.44,-9999.0,North,21.9,32.2,N/A,,Overcast,10,2014-03-13 01:35:00
9:55 PM,18.3,13.6,82,29.43,0.8,North,23.0,33.4,N/A,Snow,Snow,10,2014-03-13 01:55:00
10:15 PM,18.3,13.5,81,29.46,1.0,North,19.6,33.4,N/A,Snow,Light Snow,360,2014-03-13 02:15:00
10:35 PM,18.3,13.1,80,29.46,1.5,North,16.1,27.6,N/A,Snow,Light Snow,360,2014-03-13 02:35:00
10:55 PM,18.3,13.1,80,29.47,2.0,North,15.0,26.5,N/A,Snow,Light Snow,360,2014-03-13 02:55:00
11:15 PM,18.1,13.5,82,29.46,-9999.0,North,13.8,26.5,N/A,,Overcast,350,2014-03-13 03:15:00
11:35 PM,15.8,11.3,82,29.47,-9999.0,North,20.7,29.9,N/A,,Overcast,360,2014-03-13 03:35:00
11:55 PM,15.8,11.3,82,29.48,-9999.0,North,20.7,32.2,N/A,,Overcast,360,2014-03-13 03:55:00